Regional Weather Roundup
Issued by NWS

Home | Current Version | Previous Version | Text Only | Print | Product List | Glossary On
Versions: 1 2 3 4 5 6 7 8 9 10 11 12 13 14 15 16 17 18 19 20 21 22 23 24 25 26 27 28 29 30 31 32 33 34 35 36 37 38 39 40 41 42 43 44 45 46 47 48 49 50
000
ASUS43 KOAX 241810
RWRNE

WEATHER ROUNDUP FOR NEBRASKA
NATIONAL WEATHER SERVICE OMAHA NE
100 PM CDT SUN SEP 24 2017

NOTES: SATELLITE DATA IS BEING USED TO AUGMENT CLOUD COVER ABOVE
       12000 FEET.
       "FAIR" INDICATES FEW OR NO CLOUDS BELOW 12,000 FEET WITH NO
       SIGNIFICANT WEATHER AND/OR OBSTRUCTIONS TO VISIBILITY.


NEZ001>004-019>022-054>056-241900-
NEBRASKA PANHANDLE

CITY           SKY/WX    TMP DP  RH WIND       PRES   REMARKS
SCOTTSBLUFF    CLOUDY    52  43  71 N8        30.04S
6HR MIN TEMP:  46; 6HR MAX TEMP:  52; 6HR PCP:  0.01;

ALLIANCE       CLOUDY    51  43  74 N12       30.03R
6HR MIN TEMP:  44; 6HR MAX TEMP:  52;

CHADRON        CLOUDY    54  42  64 NE18      30.05S
6HR MIN TEMP:  45; 6HR MAX TEMP:  54;

GORDON         CLOUDY    48  45  90 N12       30.04R
6HR MIN TEMP:  45; 6HR MAX TEMP:  48;

KIMBALL        CLOUDY    48  44  84 NE13      30.02F
SIDNEY         CLOUDY    50  44  80 N15       30.02S
6HR MIN TEMP:  43; 6HR MAX TEMP:  51; 6HR PCP:  0.01;

$$

NEZ057>060-069>072-079>082-241900-
SOUTHWEST NEBRASKA

CITY           SKY/WX    TMP DP  RH WIND       PRES   REMARKS
NORTH PLATTE   CLOUDY    56  50  80 N9        30.00R
6HR MIN TEMP:  50; 6HR MAX TEMP:  56; 6HR PCP:  0.02;

IMPERIAL       CLOUDY    52  48  86 N9        30.01R
6HR MIN TEMP:  49; 6HR MAX TEMP:  53; 6HR PCP:  0.02;

LEXINGTON      CLOUDY    55  53  93 N7        29.99R
MCCOOK         LGT RAIN  55  54  96 N9        29.99R FOG
6HR MIN TEMP:  52; 6HR MAX TEMP:  55; 6HR PCP:  0.09;

OGALLALA       CLOUDY    55  48  77 N10       30.01R
$$

NEZ005>010-023>029-035>040-094-241900-
NORTH CENTRAL NEBRASKA

CITY           SKY/WX    TMP DP  RH WIND       PRES   REMARKS
VALENTINE      CLOUDY    52  49  89 NW13      30.01S
6HR MIN TEMP:  50; 6HR MAX TEMP:  53; 6HR PCP:  0.15;

AINSWORTH      CLOUDY    52  51  97 N13       29.99S
BROKEN BOW     LGT RAIN  55  52  89 N13       29.98R
6HR MIN TEMP:  53; 6HR MAX TEMP:  55; 6HR PCP:  0.28;

O`NEILL        DRIZZLE   55  55 100 NW8       29.97S
ORD            LGT RAIN  56  52  86 N9        29.95S
6HR MIN TEMP:  54; 6HR MAX TEMP:  60; 6HR PCP:  0.22;

THEDFORD       CLOUDY    54  49  84 NW10      30.02R
$$

NEZ041-046>049-061>064-073>077-083>087-241900-
SOUTH CENTRAL NEBRASKA

CITY           SKY/WX    TMP DP  RH WIND       PRES   REMARKS
GRAND ISLAND   CLOUDY    76  63  64 SW10      29.93R
6HR MIN TEMP:  66; 6HR MAX TEMP:  77;

AURORA         PTSUNNY   79  62  54 SW12      29.92S
HASTINGS       CLOUDY    76  61  59 SW8       29.94R
6HR MIN TEMP:  69; 6HR MAX TEMP:  77;

HEBRON         MOSUNNY   85  63  46 SW21      29.91S
HOLDREGE       LGT RAIN  65  63  92 CALM      29.95R
KEARNEY        LGT RAIN  62  60  93 N7        29.95R
YORK           PTSUNNY   82  63  51 SW15      29.91S
$$

NEZ011>018-030>034-042>045-241900-
NORTHEAST NEBRASKA

CITY           SKY/WX    TMP DP  RH WIND       PRES   REMARKS
NORFOLK        CLOUDY    77  65  66 W20G28    29.88R
6HR MIN TEMP:  67; 6HR MAX TEMP:  83;

ALBION         CLOUDY    65  59  81 NW14      29.94R
BLAIR          MOSUNNY   86  65  48 S18G24    29.91F
COLUMBUS       PTSUNNY   85  65  51 S14G23    29.90S
FREMONT        MOSUNNY   86  62  44 SW21      29.90F
TEKAMAH        MOSUNNY   87  65  47 S18G24    29.89F
6HR MIN TEMP:  65; 6HR MAX TEMP:  88;

WAYNE          MOSUNNY   81  66  60 SW21G26   29.88F
$$

NEZ050>053-065>068-078-088>093-241900-
SOUTHEAST NEBRASKA

CITY           SKY/WX    TMP DP  RH WIND       PRES   REMARKS
LINCOLN        MOSUNNY   86  63  45 S20G30    29.90F
6HR MIN TEMP:  69; 6HR MAX TEMP:  88;

OMAHA EPPLEY   PTSUNNY   87  66  49 S14       29.90F
6HR MIN TEMP:  71; 6HR MAX TEMP:  87;

BEATRICE       CLOUDY    86  65  49 S16G22    29.91F
FALLS CITY     MOSUNNY   87  66  49 S8        29.93F
6HR MIN TEMP:  66; 6HR MAX TEMP:  87;

NEBRASKA CITY  CLOUDY    85  65  50 SW17      29.93F
PLATTSMOUTH    CLOUDY    86  66  51 S10G20    29.92F
$$

NEZ044-045-051>053-067-241900-
OMAHA AREA

CITY           SKY/WX    TMP DP  RH WIND       PRES   REMARKS
OMAHA EPPLEY   PTSUNNY   87  66  49 S14       29.90F
6HR MIN TEMP:  71; 6HR MAX TEMP:  87;

BLAIR          MOSUNNY   86  65  48 S18G24    29.91F
FREMONT        MOSUNNY   86  62  44 SW21      29.90F
MILLARD        MOSUNNY   90  66  45 S13G18    29.90F HX  92
OFFUTT AFB     MOSUNNY   88  65  46 S10G21    29.90F
PLATTSMOUTH    CLOUDY    86  66  51 S10G20    29.92F
WAHOO          MOCLDY    86  61  42 S13G24    29.90F
$$




USA.gov is the U.S. government's official web portal to all federal, state and local government web resources and services.